Location: Aranbee
(34.0885°N, 118.2342°W)
Time: 09:43:56
(UTC+00:00)

Courier 1B Rocket - Pass Details

Date: 04 December 2020
Orbit: 920 x 1202 km, 28.2° (Epoch: 27 January)

Event Time Altitude Azimuth Distance (km) Brightness Sun altitude
Rises 11:23:35 0° 243° (WSW) 3,965 - -40.7°
Reaches altitude 10° 11:26:26 10° 238° (WSW) 3,041 - -40.1°
Maximum altitude 11:33:37 47° 167° (SSE) 1,530 - -38.6°
Exits shadow 11:34:45 44° 143° (SE) 1,590 6.2 -38.4°
Drops below altitude 10° 11:41:01 10° 96° (E) 3,131 8.4 -37.1°
Sets 11:44:00 0° 91° (E) 4,092 9.2 -36.4°
